Temperature
14 15 15 15 12 9 11 12 12 12 13 14 14 14 14 14 14 14 14 14 15 15 14 14 14 14 14 15 15 15 15 15 15 15 15 15 15 15 15 15 15 15 15 15 15 15 15 15 15
14 15 15 14 10 10 11 11 11 12 13 14 14 14 13 13 14 14 14 14 14 14 14 14 14 14 14 14 15 15 15 15 15 15 15 15 15 15 15 15 15 15 15 15 15 15 15 15 15
14 15 15 9 9 10 12 12 11 12 13 14 13 14 13 13 13 13 14 14 14 14 14 14 14 14 14 14 14 14 15 15 15 15 15 15 15 15 15 15 15 15 15 15 15 15 14 14 14
15 15 13 9 11 10 11 11 11 11 13 13 13 13 13 13 13 13 14 14 14 14 14 14 14 14 14 14 14 14 14 14 15 15 15 15 15 15 15 15 15 15 15 15 14 14 14 14 14
14 14 9 9 10 10 10 11 11 11 11 12 12 12 12 13 13 13 13 13 14 13 13 13 13 14 14 14 14 14 14 14 14 14 14 15 15 15 15 15 15 15 15 14 14 14 14 14 14
14 10 9 9 10 10 10 11 11 11 11 12 12 11 12 12 13 13 13 13 13 13 13 13 13 13 13 14 14 14 14 14 14 14 14 14 14 15 15 14 14 14 14 14 14 14 14 14 14
12 8 9 10 9 10 11 11 11 10 10 11 12 11 12 12 12 12 12 12 12 13 13 13 13 13 13 13 13 13 14 14 14 14 14 14 14 14 14 14 14 14 14 14 14 14 14 14 14
12 8 9 8 9 10 11 11 11 11 11 12 12 11 11 12 12 12 12 12 12 12 12 12 13 13 13 13 13 13 13 13 13 13 13 14 14 14 14 14 14 14 14 14 14 14 13 13 13
12 8 8 9 9 10 10 10 11 11 11 11 11 12 12 12 12 12 12 12 12 12 12 12 12 12 12 13 13 13 13 13 13 13 13 13 14 14 14 14 14 14 13 13 13 13 13 13 13
10 7 9 10 9 10 10 10 10 10 10 10 11 11 12 11 11 11 11 11 11 11 11 12 12 12 12 12 12 12 13 13 13 13 13 13 13 13 13 13 13 13 13 13 13 13 13 13 13
9 8 9 10 10 10 10 10 10 10 9 10 11 11 11 11 11 11 11 11 11 11 11 11 11 11 11 12 12 12 12 12 12 12 12 12 13 13 13 13 13 13 13 13 13 13 12 12 12
9 9 9 10 10 10 10 10 9 9 10 11 11 11 11 11 11 11 11 11 11 11 11 11 11 11 11 11 11 11 11 11 12 12 12 12 12 12 13 12 12 12 12 12 12 12 12 12 12
8 9 10 10 10 10 10 9 9 9 11 11 11 11 11 11 11 11 11 11 11 11 11 11 11 10 10 11 11 11 11 11 11 12 12 12 12 12 12 12 12 12 12 12 12 12 12 12 12
9 9 9 9 9 9 9 9 8 10 11 11 11 11 11 11 11 11 11 11 11 11 11 11 10 10 10 10 10 10 11 11 11 11 11 11 11 11 11 12 12 12 12 12 11 12 12 12 11
9 8 8 8 9 9 9 8 7 10 10 10 10 10 11 10 11 10 10 10 10 10 10 10 10 10 10 10 10 10 10 10 10 11 11 11 11 11 11 11 11 11 11 11 11 11 11 11 11
8 8 7 8 8 8 8 8 9 10 10 9 10 10 10 10 10 10 10 10 10 10 10 10 10 10 10 10 10 10 10 10 10 10 10 10 11 11 11 11 11 11 11 11 11 11 11 11 11
7 7 7 8 8 8 7 7 8 9 9 9 9 9 10 10 10 10 10 10 10 10 10 10 10 10 10 10 10 10 9 10 10 10 10 10 10 10 10 10 10 11 11 10 10 10 10 10 10
8 7 7 7 8 7 7 7 7 8 8 8 8 9 9 9 10 10 10 10 10 9 9 9 9 9 9 9 9 9 9 9 9 9 9 9 9 10 10 10 10 10 10 10 10 10 10 10 10
8 7 7 7 8 7 6 7 7 8 7 7 8 8 9 9 10 9 9 9 9 9 9 9 9 9 9 9 9 9 9 9 9 9 9 9 9 9 9 9 9 10 10 10 10 10 10 10 9
7 7 7 7 7 7 6 6 7 7 7 7 7 8 8 9 9 9 9 9 9 9 9 9 8 9 9 8 8 8 8 8 8 8 8 8 8 9 9 9 9 9 9 9 9 9 9 9 9
7 7 7 7 7 7 6 6 7 7 7 7 8 8 8 9 9 9 9 9 9 9 8 8 8 8 8 8 8 8 8 8 8 8 8 8 8 8 9 9 9 9 9 9 9 9 9 9 9
7 7 7 7 6 5 6 6 7 7 6 6 7 7 8 8 9 9 9 8 8 8 8 8 8 8 8 8 8 8 8 8 8 8 8 8 8 8 8 8 8 8 8 8 9 8 9 9 9
7 7 7 7 6 5 5 5 6 6 7 7 6 7 8 8 8 8 8 8 8 8 8 8 8 8 8 8 8 8 7 7 7 7 8 8 7 8 8 8 8 8 8 8 8 8 8 8 8
7 6 6 5 5 6 6 5 6 5 7 7 7 7 7 8 8 8 8 8 8 8 8 7 7 7 7 7 7 7 7 7 7 7 7 7 7 7 7 7 7 8 8 8 8 8 8 8 8
7 6 6 6 5 6 5 5 6 6 6 6 6 7 7 8 8 8 8 8 8 7 7 7 7 7 7 7 7 7 7 7 6 6 7 7 7 7 7 7 7 7 7 7 7 7 7 7 7
6 7 6 7 6 5 5 5 6 6 6 7 7 7 7 7 7 7 7 7 7 7 7 7 7 7 6 6 6 6 6 6 6 6 6 6 7 7 7 7 7 7 7 7 7 7 7 7 7
6 6 6 5 5 4 5 5 5 6 6 6 6 6 7 7 7 7 7 7 7 7 7 7 6 6 6 6 6 6 6 6 6 6 6 6 6 6 6 6 6 6 6 6 6 6 6 6 6
6 5 4 5 6 6 6 5 5 6 6 5 5 5 6 7 7 7 7 7 7 7 6 6 6 6 6 6 5 5 5 5 5 5 5 6 6 6 6 6 6 6 6 6 6 6 6 6 6
5 5 5 4 4 5 5 6 6 6 6 5 5 6 6 7 7 7 7 6 6 6 6 6 6 6 5 5 5 5 5 5 5 5 5 5 5 5 6 5 6 6 6 6 5 6 6 6 6
5 5 4 5 4 3 4 5 6 5 5 5 5 6 6 7 7 7 6 6 6 6 6 5 5 5 5 5 5 5 5 5 4 5 5 5 5 5 5 5 5 5 5 5 5 5 5 5 5
Wind_Speed
8 5 3 5 6 5 1 3 2 2 2 1 1 1 4 3 3 2 2 1 1 1 2 2 3 4 4 4 4 5 5 5 5 6 6 7 8 10 10 11 10 10 10 10 11 11 11 12 12
3 3 6 6 5 1 4 3 3 4 2 2 2 1 2 0 1 1 2 3 2 0 1 2 3 4 5 4 4 4 5 5 5 5 6 6 7 8 10 10 10 10 10 10 11 11 11 11 12
3 6 5 5 4 4 3 3 4 3 2 1 2 2 1 1 2 2 3 3 1 1 0 1 3 4 4 4 4 4 5 5 4 4 5 6 7 7 9 10 10 10 10 10 11 12 12 12 12
4 6 6 5 2 3 3 3 2 3 3 3 1 1 1 1 2 2 3 2 2 2 2 1 2 3 4 4 4 4 5 5 5 4 5 6 6 7 8 9 9 10 11 11 11 12 12 12 12
5 5 5 2 2 3 2 3 1 0 2 2 1 0 2 3 3 2 2 2 2 2 3 1 1 1 3 3 4 4 5 5 5 5 4 6 6 7 7 8 9 10 10 11 11 12 12 12 12
5 5 4 1 3 3 3 2 0 1 1 2 1 1 2 2 2 2 2 2 1 1 2 2 0 0 2 3 3 3 5 6 5 5 4 5 6 7 7 8 9 10 10 10 11 11 12 12 12
5 5 3 3 2 3 2 1 1 0 1 2 1 1 3 4 3 1 2 3 3 2 2 2 2 0 0 1 2 3 4 6 6 6 5 5 5 6 6 8 9 9 10 10 10 10 11 12 12
5 5 3 2 2 4 2 1 0 2 2 2 2 2 4 4 2 2 2 2 3 2 2 2 2 2 1 0 2 3 4 5 6 6 5 5 5 5 6 8 9 9 9 9 10 10 11 12 12
4 4 2 4 5 3 1 0 2 1 1 1 2 3 4 2 1 2 2 3 3 3 2 1 2 2 2 1 1 1 2 4 5 5 5 5 4 5 6 7 9 9 9 9 9 10 11 11 11
5 3 4 3 4 3 1 2 2 1 2 3 4 4 3 1 1 1 2 3 3 3 3 2 1 1 1 1 1 1 1 2 3 4 4 4 4 4 5 7 9 9 9 9 9 10 10 10 9
3 4 3 2 2 2 1 2 1 2 5 6 6 6 4 3 3 3 4 4 4 4 3 3 2 1 0 1 0 1 1 0 2 4 5 4 4 4 5 5 6 7 7 7 8 8 7 8 8
2 2 2 2 1 1 2 2 2 5 8 6 7 5 4 5 5 5 6 5 4 4 4 3 2 1 1 0 0 0 0 1 1 2 5 4 3 3 3 4 5 5 6 7 7 7 7 7 8
1 2 2 2 2 2 2 4 4 7 9 5 4 4 6 6 6 6 6 6 5 5 5 4 3 2 1 1 1 1 0 1 0 2 3 5 3 3 3 3 4 5 6 6 6 6 6 6 6
1 2 3 4 3 2 3 5 3 10 5 4 4 6 6 6 6 5 5 6 6 5 5 4 3 3 2 2 2 2 1 1 1 1 2 4 4 3 4 3 4 4 6 6 6 6 6 5 5
1 3 5 3 2 2 0 6 5 8 2 3 5 6 6 6 5 6 6 5 6 5 4 4 4 2 2 2 3 2 2 2 1 0 2 3 4 4 4 4 4 4 6 7 7 6 6 5 5
2 3 4 5 1 1 2 7 7 4 2 5 6 6 6 6 5 5 5 4 4 3 3 3 3 2 2 2 2 2 2 2 1 1 1 2 4 4 4 4 4 5 7 6 5 4 4 4 4
2 2 4 6 2 1 3 8 7 2 3 6 7 6 6 6 6 5 3 3 2 3 3 2 2 3 2 1 1 2 2 2 2 1 1 2 3 4 3 3 4 6 5 5 5 4 4 5 4
4 3 4 5 3 1 5 11 11 5 5 7 7 7 6 6 7 5 3 2 1 1 1 1 2 2 2 1 1 1 2 2 2 1 1 2 2 3 3 3 4 5 5 4 4 5 4 4 5
2 3 6 6 3 3 7 12 13 8 5 7 7 7 6 7 6 4 2 1 0 0 1 1 0 1 2 2 1 2 2 2 1 1 2 2 2 3 4 3 3 3 4 5 5 5 5 3 4
3 4 6 5 2 3 7 12 10 7 5 6 6 6 6 5 5 3 2 1 1 1 1 1 1 1 1 1 2 1 2 2 2 1 2 2 2 3 4 4 4 3 4 5 5 5 3 2 3
5 6 6 5 5 3 5 9 5 3 2 3 4 4 4 4 4 3 2 1 1 1 1 2 2 2 2 2 2 2 2 2 1 1 1 1 1 2 3 4 4 4 4 5 6 5 4 4 1
6 6 6 4 3 5 2 6 7 4 5 4 5 4 4 4 3 3 2 2 2 2 1 1 1 1 2 3 3 4 3 2 2 2 1 1 1 2 3 4 4 5 4 5 6 5 3 5 3
6 2 3 3 3 4 2 3 9 3 5 6 5 4 4 4 3 3 2 2 2 1 1 0 1 1 1 2 3 4 3 2 2 2 3 1 1 2 3 3 3 4 4 4 5 4 4 4 3
2 2 2 3 2 4 4 5 8 4 5 5 4 3 4 4 3 3 2 1 1 1 0 0 1 1 1 2 2 3 4 3 4 3 3 2 1 1 2 3 3 3 4 5 5 5 5 4 4
2 3 3 4 2 6 3 4 9 7 5 5 5 5 4 3 2 2 2 1 1 1 1 0 1 1 1 2 2 2 3 4 4 4 4 3 2 1 2 2 2 3 3 5 5 4 4 4 5
4 5 5 4 5 5 2 7 8 5 4 4 4 3 2 3 2 2 2 2 2 2 1 1 1 1 1 2 1 1 2 2 2 3 3 3 3 2 3 3 3 3 3 4 4 4 4 4 4
4 4 4 4 2 4 6 7 8 3 3 3 3 2 3 3 3 3 2 2 2 2 2 2 2 1 2 2 2 2 2 2 2 2 2 2 2 2 3 3 3 3 3 3 4 3 4 4 3
3 5 4 4 3 5 6 6 5 5 5 4 3 4 4 4 3 3 3 2 2 2 2 2 2 2 2 2 3 2 2 2 2 2 2 2 2 2 3 4 4 3 3 4 3 3 4 4 3
3 3 3 3 3 4 5 7 6 7 5 4 5 5 5 4 5 4 3 2 2 1 2 2 2 2 2 2 2 2 2 1 1 2 2 2 2 2 3 4 4 4 4 4 3 3 4 4 3
5 5 6 4 5 4 4 8 4 3 3 3 5 5 5 5 4 4 3 2 2 2 2 2 2 3 2 2 2 2 2 2 2 2 2 2 2 2 3 3 3 3 4 4 4 4 4 5 5
Wind_Direction
357 29 62 55 57 55 218 248 240 279 260 271 261 165 151 155 169 223 293 343 348 235 207 178 155 156 152 145 138 136 128 125 130 136 138 142 146 150 148 144 141 136 133 131 125 121 120 120 120
13 45 53 59 89 105 262 251 243 244 259 325 15 83 103 267 334 340 329 317 335 207 177 178 160 154 154 154 154 149 147 139 139 147 149 148 148 150 153 150 146 141 138 136 131 125 123 121 122
59 52 76 74 112 177 223 243 233 280 310 22 22 40 106 286 323 304 293 306 9 20 54 190 159 153 152 159 162 168 168 159 149 157 164 158 155 156 153 153 151 149 144 140 135 129 128 126 125
67 47 57 74 143 218 227 267 252 309 349 22 58 32 330 321 288 280 320 3 37 7 7 353 143 157 159 161 171 178 180 173 162 162 170 170 165 161 156 152 152 150 146 142 139 136 132 131 130
57 73 66 49 259 259 258 285 264 322 332 349 43 129 296 317 335 351 11 21 52 4 2 5 107 168 171 171 176 187 185 178 174 167 176 181 172 162 157 151 150 150 148 146 143 142 139 135 134
57 68 91 208 260 283 283 286 85 26 323 335 46 188 264 319 1 347 4 4 24 28 11 17 65 174 201 191 199 202 197 184 179 176 173 177 177 167 164 159 151 149 150 151 147 143 141 136 134
100 99 147 190 258 291 285 307 126 152 324 281 200 186 286 314 314 332 5 6 4 25 27 11 5 347 204 220 230 226 211 197 186 179 173 165 164 167 168 162 158 155 155 154 148 143 143 140 135
112 107 126 202 220 260 282 330 228 184 251 278 156 178 260 280 307 357 6 7 352 357 8 9 12 349 331 248 254 241 221 207 192 179 166 164 164 168 170 163 158 157 157 155 149 143 141 139 137
83 84 181 212 202 243 257 332 314 278 241 294 232 217 247 284 29 31 0 344 330 332 330 343 360 354 349 357 271 282 241 207 181 175 163 150 155 160 162 165 158 151 148 148 148 142 136 131 132
82 140 214 216 193 212 239 221 255 307 296 279 289 290 294 285 269 267 269 272 277 285 286 277 275 301 320 298 351 334 309 208 165 156 153 141 141 145 146 148 151 148 145 140 136 132 131 120 119
119 177 220 253 222 217 241 261 229 193 253 236 242 263 270 258 258 249 249 247 249 256 272 275 273 278 274 341 13 7 340 351 150 147 148 137 129 130 131 129 132 134 132 124 120 110 113 117 118
133 234 211 246 216 215 233 256 258 218 239 243 236 242 252 252 255 246 244 252 251 253 259 260 264 244 227 150 60 99 49 27 92 139 147 138 122 121 123 119 126 124 125 118 113 109 107 111 118
154 272 266 251 260 242 245 249 255 262 261 264 260 254 249 253 262 260 252 253 253 250 249 247 245 226 218 173 181 158 172 165 160 132 148 151 141 157 136 129 128 128 128 125 121 118 115 112 112
225 279 294 286 256 244 232 268 252 269 267 257 257 258 253 252 259 268 271 258 252 249 247 241 237 226 206 186 184 184 171 174 162 143 151 155 155 154 147 144 137 132 134 134 128 129 124 116 113
36 342 325 294 250 259 236 300 244 262 292 278 278 277 276 269 263 253 255 260 253 247 242 230 230 222 209 191 188 177 167 172 136 82 159 154 144 152 150 154 151 140 138 129 123 117 115 115 110
40 21 320 298 258 236 134 276 273 273 268 284 285 286 286 282 268 263 260 261 265 252 244 236 225 212 216 206 184 165 168 156 123 107 133 145 145 146 149 156 157 142 135 129 130 128 118 119 122
30 301 272 299 273 181 194 261 280 302 268 277 282 282 283 292 291 281 273 262 263 255 251 239 217 208 207 202 167 163 153 143 125 124 104 127 148 148 145 158 149 144 136 134 140 133 131 131 124
242 242 263 267 281 204 241 263 281 289 261 266 275 281 284 287 282 283 281 272 271 262 250 249 223 201 167 119 112 132 129 123 111 111 106 125 152 150 136 138 144 144 142 140 136 134 122 132 129
189 218 258 264 266 256 255 270 282 286 268 270 275 277 279 282 283 285 278 270 281 325 208 222 216 168 131 129 146 156 165 159 136 109 111 124 151 156 139 143 146 151 155 154 145 133 127 119 125
223 256 270 284 279 250 280 281 278 269 253 251 259 269 275 291 309 307 304 301 265 255 230 205 203 173 158 166 164 158 151 155 149 112 92 107 131 150 143 149 158 162 149 145 147 141 134 135 145
235 227 247 266 319 321 315 304 288 286 274 283 273 270 272 269 282 291 304 299 303 274 250 223 205 188 178 151 127 112 98 84 87 105 115 94 128 138 134 149 153 158 162 165 161 161 150 157 169
252 234 233 256 304 297 4 300 290 284 303 291 285 287 278 281 283 286 292 300 282 270 259 227 205 185 169 152 149 155 156 163 176 164 148 123 121 129 125 148 160 160 161 167 170 166 154 156 166
229 244 214 226 217 289 255 235 284 305 290 289 287 280 278 280 284 283 283 277 275 265 207 204 170 164 163 162 166 164 164 164 141 132 129 125 94 115 117 141 162 162 162 170 171 163 156 160 166
187 62 68 69 99 272 224 199 277 249 242 278 290 283 280 286 295 298 306 325 344 21 61 116 153 168 154 153 158 163 162 159 152 151 152 149 146 111 110 129 149 157 160 171 175 168 166 169 166
108 94 10 342 315 252 208 215 251 249 237 243 267 282 287 287 289 301 307 312 322 295 285 344 164 188 154 146 147 158 158 167 176 177 173 169 171 165 167 145 151 153 165 169 167 165 172 173 171
194 168 177 223 244 280 261 236 254 257 264 264 265 276 291 292 289 282 263 255 250 239 237 211 198 192 164 156 157 140 143 166 180 189 179 183 191 194 181 164 163 161 165 164 162 162 169 171 175
165 201 180 160 224 266 264 275 297 278 300 296 292 293 281 281 286 284 276 254 243 234 226 208 202 196 176 170 152 144 157 173 177 183 176 183 181 182 168 166 161 164 163 157 159 170 169 167 176
166 154 125 164 209 255 276 266 252 270 276 287 281 274 273 280 282 283 276 257 244 233 222 192 194 196 188 170 167 158 180 190 178 177 190 190 186 177 166 164 161 165 165 160 163 166 161 157 167
156 172 178 178 196 203 262 268 229 228 240 254 265 266 263 262 262 262 269 263 249 238 215 193 189 184 184 184 176 169 174 172 176 200 207 193 183 179 176 177 172 174 174 169 170 175 165 164 168
195 187 160 187 235 211 230 267 272 234 259 265 270 275 273 264 261 262 264 256 241 230 220 208 199 194 197 189 180 187 179 172 189 213 220 197 192 188 182 176 175 180 183 179 181 189 186 181 182
Height
1492 1493 1494 1497 1502 1516 1517 1513 1510 1508 1506 1505 1504 1504 1505 1506 1509 1512 1507 1505 1505 1506 1507 1508 1510 1511 1512 1513 1514 1515 1516 1516 1517 1518 1519 1520 1521 1522 1523 1525 1526 1527 1528 1529 1530 1531 1532 1533 1534
1493 1494 1497 1498 1511 1522 1518 1511 1509 1506 1505 1504 1503 1504 1504 1505 1505 1506 1505 1505 1505 1506 1507 1508 1509 1510 1511 1512 1513 1514 1515 1516 1516 1518 1519 1520 1521 1522 1523 1524 1525 1526 1528 1529 1530 1531 1532 1533 1534
1494 1495 1498 1503 1515 1519 1512 1508 1507 1505 1504 1503 1504 1504 1505 1505 1505 1505 1505 1505 1505 1506 1506 1507 1508 1509 1510 1511 1512 1513 1514 1515 1516 1517 1518 1519 1520 1521 1522 1523 1524 1526 1527 1529 1530 1531 1532 1533 1535
1495 1497 1500 1510 1513 1513 1509 1507 1506 1504 1503 1503 1504 1504 1505 1506 1505 1505 1504 1504 1505 1505 1506 1507 1508 1508 1509 1510 1511 1512 1513 1514 1514 1515 1516 1518 1519 1520 1521 1522 1524 1525 1527 1528 1529 1531 1532 1533 1535
1496 1498 1507 1515 1513 1510 1507 1506 1505 1505 1504 1504 1504 1504 1504 1505 1504 1504 1504 1504 1504 1504 1505 1506 1506 1507 1508 1509 1509 1510 1511 1512 1513 1514 1515 1516 1517 1519 1520 1521 1523 1524 1526 1527 1529 1530 1532 1533 1535
1497 1500 1515 1518 1513 1509 1506 1505 1505 1505 1504 1504 1504 1504 1503 1504 1503 1503 1503 1503 1503 1503 1504 1504 1505 1506 1506 1507 1508 1508 1509 1511 1511 1512 1513 1514 1516 1517 1519 1520 1522 1523 1525 1526 1528 1530 1531 1533 1534
1498 1506 1514 1514 1513 1509 1506 1504 1505 1504 1504 1504 1504 1504 1503 1502 1502 1502 1502 1502 1502 1502 1502 1502 1503 1504 1505 1505 1506 1507 1508 1509 1510 1511 1512 1513 1514 1516 1517 1519 1520 1522 1524 1526 1527 1529 1530 1532 1534
1498 1506 1512 1514 1512 1509 1505 1504 1504 1504 1504 1504 1503 1503 1502 1502 1501 1500 1500 1500 1500 1500 1500 1500 1501 1502 1502 1503 1504 1505 1506 1506 1507 1508 1510 1511 1513 1514 1516 1517 1519 1520 1522 1524 1526 1528 1530 1532 1533
1499 1510 1514 1511 1510 1507 1504 1504 1504 1504 1503 1502 1502 1502 1501 1500 1499 1498 1498 1498 1498 1497 1498 1498 1498 1499 1500 1501 1502 1502 1503 1504 1505 1506 1508 1509 1511 1512 1514 1515 1517 1519 1521 1523 1525 1527 1528 1531 1533
1500 1511 1508 1505 1505 1504 1503 1503 1503 1503 1502 1501 1500 1499 1499 1498 1497 1496 1495 1495 1495 1495 1496 1496 1496 1496 1497 1498 1499 1499 1500 1502 1503 1504 1505 1507 1509 1510 1512 1514 1516 1517 1519 1521 1523 1525 1527 1529 1532
1502 1506 1504 1503 1503 1503 1503 1502 1502 1502 1500 1498 1497 1497 1496 1496 1494 1493 1493 1493 1493 1493 1493 1493 1493 1494 1494 1495 1496 1496 1498 1499 1500 1502 1503 1505 1507 1508 1510 1512 1514 1515 1517 1519 1521 1524 1526 1528 1530
1503 1503 1503 1502 1502 1502 1502 1501 1501 1499 1496 1496 1495 1495 1494 1493 1492 1491 1490 1490 1491 1490 1491 1491 1491 1491 1491 1492 1493 1494 1495 1497 1498 1499 1501 1502 1504 1506 1508 1510 1512 1513 1515 1517 1520 1522 1525 1527 1529
1503 1503 1502 1501 1501 1501 1501 1500 1499 1495 1493 1493 1493 1492 1491 1490 1489 1488 1488 1488 1488 1488 1488 1488 1488 1488 1488 1489 1490 1491 1493 1494 1495 1497 1498 1500 1502 1503 1506 1508 1510 1512 1514 1516 1518 1521 1523 1526 1528
1502 1502 1501 1500 1499 1499 1499 1497 1497 1490 1490 1490 1489 1488 1488 1487 1486 1486 1485 1485 1485 1485 1485 1485 1485 1485 1486 1486 1487 1489 1490 1492 1493 1494 1496 1498 1499 1501 1503 1506 1508 1510 1512 1515 1517 1519 1522 1524 1526
1502 1503 1501 1498 1497 1497 1498 1497 1493 1487 1488 1487 1486 1486 1485 1484 1484 1483 1482 1482 1481 1482 1482 1482 1483 1483 1483 1484 1485 1486 1488 1489 1490 1492 1493 1495 1497 1499 1501 1504 1506 1508 1511 1513 1516 1518 1520 1522 1524
1503 1505 1506 1499 1497 1497 1500 1498 1488 1487 1486 1485 1484 1483 1482 1481 1481 1480 1479 1479 1478 1478 1479 1479 1480 1480 1481 1481 1482 1483 1485 1486 1488 1489 1491 1492 1495 1497 1500 1502 1504 1506 1509 1511 1514 1516 1518 1520 1522
1507 1509 1506 1501 1496 1497 1498 1495 1486 1485 1485 1483 1481 1480 1479 1478 1477 1477 1476 1476 1475 1475 1475 1476 1476 1477 1478 1478 1479 1481 1482 1483 1485 1488 1489 1490 1493 1495 1497 1499 1502 1504 1507 1509 1512 1514 1516 1518 1520
1507 1508 1506 1503 1497 1497 1497 1492 1484 1483 1482 1480 1478 1477 1476 1474 1474 1474 1473 1473 1473 1473 1473 1473 1473 1474 1475 1476 1477 1478 1479 1481 1483 1485 1487 1489 1491 1493 1496 1497 1500 1502 1505 1507 1509 1512 1515 1517 1519
1503 1505 1505 1501 1496 1497 1494 1489 1482 1479 1479 1477 1475 1473 1472 1472 1472 1471 1471 1470 1470 1470 1470 1471 1471 1471 1472 1473 1474 1475 1476 1478 1480 1483 1484 1487 1489 1491 1493 1495 1498 1500 1502 1504 1507 1509 1512 1514 1516
1503 1504 1503 1499 1496 1496 1493 1487 1479 1476 1475 1473 1472 1470 1469 1469 1468 1468 1468 1468 1468 1468 1468 1468 1469 1469 1470 1471 1472 1474 1475 1476 1478 1480 1482 1484 1487 1489 1491 1493 1495 1498 1500 1502 1504 1506 1508 1511 1514
1501 1502 1500 1500 1497 1495 1494 1485 1478 1473 1472 1470 1469 1468 1467 1467 1466 1466 1466 1466 1466 1465 1466 1466 1467 1468 1468 1469 1470 1471 1473 1474 1476 1477 1479 1482 1485 1486 1488 1490 1493 1496 1498 1499 1502 1504 1506 1507 1511
1499 1496 1497 1497 1500 1501 1498 1497 1479 1474 1472 1468 1466 1465 1465 1465 1465 1465 1465 1464 1464 1464 1465 1465 1465 1466 1466 1467 1468 1469 1470 1471 1473 1475 1477 1480 1482 1483 1485 1488 1490 1493 1495 1497 1499 1502 1504 1506 1508
1495 1494 1496 1497 1499 1502 1500 1500 1483 1476 1471 1467 1465 1464 1463 1464 1464 1463 1463 1463 1463 1463 1463 1463 1464 1464 1465 1466 1466 1467 1468 1470 1471 1473 1475 1477 1479 1481 1482 1485 1487 1489 1492 1494 1496 1499 1501 1504 1506
1492 1495 1497 1501 1502 1501 1496 1499 1485 1476 1469 1465 1463 1462 1462 1462 1462 1462 1462 1462 1461 1461 1462 1462 1462 1463 1464 1464 1465 1465 1466 1467 1469 1470 1472 1474 1476 1478 1479 1482 1484 1486 1488 1491 1493 1496 1499 1501 1503
1493 1498 1504 1502 1505 1497 1493 1494 1482 1467 1465 1463 1462 1461 1460 1460 1461 1460 1460 1460 1460 1460 1460 1460 1461 1461 1462 1462 1463 1464 1464 1466 1467 1468 1469 1471 1473 1474 1477 1479 1481 1483 1485 1487 1490 1493 1495 1498 1500
1491 1493 1500 1501 1501 1498 1493 1490 1473 1463 1462 1461 1460 1460 1459 1459 1459 1459 1459 1459 1459 1459 1459 1459 1459 1460 1460 1460 1461 1462 1463 1464 1465 1467 1467 1469 1470 1472 1474 1476 1478 1481 1482 1484 1486 1489 1491 1494 1496
1490 1493 1492 1499 1502 1502 1491 1482 1470 1461 1460 1459 1459 1459 1458 1458 1458 1458 1458 1458 1457 1458 1458 1458 1458 1458 1458 1459 1459 1460 1461 1462 1463 1465 1466 1467 1468 1470 1472 1473 1475 1478 1479 1481 1483 1485 1487 1490 1492
1486 1490 1497 1497 1494 1493 1485 1481 1473 1462 1459 1458 1458 1458 1457 1457 1457 1456 1456 1456 1456 1456 1456 1456 1456 1456 1457 1457 1458 1459 1460 1461 1462 1463 1464 1465 1466 1468 1469 1471 1473 1474 1476 1478 1480 1481 1483 1485 1488
1488 1490 1490 1494 1493 1492 1489 1476 1460 1458 1456 1457 1456 1456 1456 1455 1455 1454 1454 1454 1454 1454 1454 1454 1454 1455 1455 1456 1456 1457 1458 1459 1460 1461 1461 1463 1464 1465 1467 1468 1470 1471 1473 1475 1476 1478 1479 1481 1484
1482 1484 1488 1491 1491 1494 1492 1475 1455 1455 1454 1455 1455 1454 1454 1454 1453 1452 1452 1451 1452 1452 1452 1452 1452 1453 1453 1454 1454 1455 1456 1457 1458 1458 1459 1460 1461 1463 1464 1465 1467 1468 1470 1472 1473 1474 1476 1478 1479